Volver al catálogo

DELTA 1 DEB

ActivoPO
NORAD 21496·DEBRIS·🇺🇸 United States

Lanzado Jun 12, 1975 desde Vandenberg Space Force Base

Loading…

Próximos Pases (próximas 24 horas)

TLE

ActualizadoSource: Space-Track

Época: Sep 14, 2026, 02:28 UTC

1 21496U 75052FR  26257.10334691 -.00000007  00000-0  99718-4 0  9996
2 21496  99.8131 120.2478 0340156 201.2013 314.7484 12.82626997653925

Sigue DELTA 1 DEB en tiempo real con AllMySat

Download on the App Store